Location: Buckland
(65.9785°N, 161.1281°W)
Time: 07:28:41
(UTC+00:00)

Transit 2A Rocket - Pass Details

Date: 01 December 2020
Orbit: 592 x 910 km, 66.7° (Epoch: 21 January)

Event Time Altitude Azimuth Distance (km) Brightness Sun altitude
Exits shadow 17:16:14 25° 282° (WNW) 1,522 5.9 -15.8°
Maximum altitude 17:19:24 87° 12° (NNE) 753 4.9 -15.5°
Drops below altitude 10° 17:24:21 10° 102° (ESE) 2,157 8.7 -15.0°
Sets 17:26:34 0° 102° (ESE) 3,027 9.9 -14.8°
